Location: Antoign�
(47.0844°N, 0.1131°W)
Time: 08:43:02
(UTC+00:00)

Meteor 2-4 Rocket - Pass Details

Date: 03 March 2021
Orbit: 799 x 908 km, 81.2° (Epoch: 12 April)

Event Time Altitude Azimuth Distance (km) Brightness Sun altitude
Rises 18:45:24 0° 351° (N) 3,486 7.0 -10.4°
Reaches altitude 10° 18:47:53 10° 356° (N) 2,557 6.3 -10.8°
Maximum altitude 18:53:38 56° 75° (ENE) 1,058 3.9 -11.8°
Drops below altitude 10° 18:59:26 10° 153° (SSE) 2,583 5.9 -12.8°
Sets 19:01:57 0° 158° (SSE) 3,523 6.7 -13.2°
